Content
SEND FEEDBACK

Daily
Averages
Monthly
Summary
Canada

MONTREAL, QUEBEC


Home > North America > Canada > Quebec
Elevation: 35 meters     Latitude: 45 28N     Longitude: 073 45W

WEATHER
 
SELECT A DAY
Number of Records: 198,177;   Date Range: 1/1/95 - 7/30/14
 
SHARE

PRINT THIS DATA

[ ← Previous Day ]
WEATHER ALMANAC - 17 JANUARY, 2013
[ Next Day → ]
[ °F ]   °C
Weather ElementAverageHighLow
Temperature-7.9 °C2 °C (1:00 am)-18 °C (11:00 pm)
Dewpoint-17.6 °C-1 °C (3:00 am)-28 °C (11:00 pm)
Humidity51.9 %93 % (3:00 am)25 % (1:00 pm)
Wind Speed24.5 km/h37 km/h (2:00 am)
Wind Gust51.8 km/h (5:53 am)
Weather ElementAverage
Visibility20 km
Wind DirectionW (274.5 °)

Weather ElementTotal
Precipitation---
Heating Degree Days26.3 (Base 18.3)
Averaged from 33 records on 17 January, 2013
WEATHER CONDITIONS BREAKOUT
WIND DIRECTION BREAKOUT
WEATHER BY HOUR - 17 JANUARY, 2013
[ °F ]   °C
Local TimeTemperatureDewpointHumidityBarometerVisibilityWind DirectionWind SpeedGust SpeedPrecipitationEventsConditions
1:00 AM1.7 °C-3.3 °C58 %1006.1 hPa24.1 kmSW (230°)33.3 km/hOvercast
1:00 AM2 °C-3 °C70 %1006.1 hPa24.1 kmSW (230°)33.3 km/h48.1 km/hOvercast
1:32 AM2 °C-17.8 °C24.1 kmSW (230°)25.9 km/h40.7 km/hSnowLight Snow Showers
2:00 AM2 °C-3 °C70 %1006.4 hPa24.1 kmWSW (240°)37 km/h48.1 km/hSnowLight Snow Showers
2:26 AM0 °C-17.8 °C4.8 kmWSW (250°)31.5 km/h46.3 km/hSnowLight Snow
2:49 AM0 °C-17.8 °C4 kmWSW (240°)33.3 km/h44.4 km/hSnowLight Snow
3:00 AM0 °C-1 °C93 %1007.1 hPa4 kmSW (230°)31.5 km/hSnowLight Snow
4:00 AM0 °C-1 °C93 %1006.8 hPa4.8 kmSW (230°)33.3 km/h42.6 km/hSnowLight Snow
4:16 AM0 °C-17.8 °C4.8 kmSW (230°)35.2 km/hSnowLight Snow
5:00 AM1 °C-1 °C87 %1007.5 hPa16.1 kmWSW (240°)35.2 km/hSnowLight Snow
5:53 AM-3 °C-17.8 °C2.4 kmWNW (300°)37 km/h51.8 km/hSnowLight Snow
6:00 AM-3 °C-6 °C80 %1009.5 hPa12.9 kmNW (310°)33.3 km/h48.1 km/hSnowLight Snow
7:00 AM-3.9 °C-11.1 °C45 %1011.2 hPa24.1 kmWNW (290°)25.9 km/hSnowLight Snow
7:00 AM-4 °C-11 °C59 %1011.2 hPa24.1 kmWNW (290°)24.1 km/h35.2 km/hSnowLight Snow
7:34 AM-5 °C-17.8 °C24.1 kmNW (310°)24.1 km/hMostly Cloudy
8:00 AM-7 °C-15 °C54 %1013.9 hPa24.1 kmWNW (290°)29.6 km/h44.4 km/hMostly Cloudy
9:00 AM-11 °C-20 °C48 %1017.3 hPa24.1 kmWest (280°)27.8 km/h44.4 km/hScattered Clouds
10:00 AM-12 °C-21 °C48 %1020 hPa24.1 kmWNW (300°)27.8 km/h37 km/hPartly Cloudy
11:00 AM-13 °C-23 °C44 %1021.3 hPa24.1 kmWNW (290°)27.8 km/hPartly Cloudy
12:00 PM-13 °C-23 °C44 %1021.7 hPa24.1 kmWNW (300°)22.2 km/hPartly Cloudy
1:00 PM-13.3 °C-23.9 °C25 %1022 hPa24.1 kmWNW (300°)16.7 km/hPartly Cloudy
1:00 PM-13 °C-24 °C40 %1022 hPa24.1 kmWNW (300°)16.7 km/hPartly Cloudy
2:00 PM-13 °C-25 °C37 %1022.4 hPa24.1 kmWest (280°)20.4 km/hScattered Clouds
3:00 PM-13 °C-25 °C37 %1022.4 hPa24.1 kmWNW (290°)18.5 km/hScattered Clouds
4:00 PM-14 °C-25 °C40 %1022.7 hPa24.1 kmWNW (300°)14.8 km/hPartly Cloudy
5:00 PM-15 °C-27 °C36 %1022.7 hPa24.1 kmWNW (290°)18.5 km/hPartly Cloudy
6:00 PM-15 °C-26 °C40 %1023.4 hPa24.1 kmWest (260°)13 km/hPartly Cloudy
7:00 PM-15.6 °C-25.6 °C27 %1023.7 hPa24.1 kmWest (280°)14.8 km/hClear
7:00 PM-16 °C-25 °C47 %1023.7 hPa24.1 kmWest (270°)18.5 km/hPartly Cloudy
8:00 PM-16 °C-26 °C43 %1025.1 hPa24.1 kmWest (260°)11.1 km/hPartly Cloudy
9:00 PM-17 °C-25 °C51 %1025.1 hPa24.1 kmWNW (290°)13 km/hMostly Cloudy
10:00 PM-17 °C-27 °C43 %1024.4 hPa24.1 kmWNW (300°)11.1 km/hScattered Clouds
11:00 PM-18 °C-28 °C43 %1023.7 hPa24.1 kmNNW (330°)11.1 km/hPartly Cloudy
Hourly data recorded from CYUL, located 0 kilometers away from Montreal, Quebec







STORIES FROM OUR PARTNERS